LRBM Weather Reports


time (UTC)temp
F
wind
direction
speed
knots
gust
knots
rain 1hr
in
rain 24hr
in
rain mn
in
humidity
%
barometer
mb
20260507134836 70 270 7.0 0.0 0.00 0.00 0.00 57 1014.0
20260507133335 70 270 7.0 0.0 0.00 0.00 0.00 57 1014.0
20260507131832 70 290 5.2 0.0 0.00 0.00 0.00 53 1014.0
20260507130335 70 290 5.2 0.0 0.00 0.00 0.00 53 1014.0
20260507124832 70 2.6 0.0 0.00 0.00 0.00 50 1014.0
20260507123413 70 2.6 0.0 0.00 0.00 0.00 50 1014.0
20260507121835 70 200 4.3 0.0 0.00 0.00 0.00 53 1015.0
20260507120335 70 200 4.3 0.0 0.00 0.00 0.00 53 1015.0
20260507114835 70 0.9 0.0 0.00 0.00 0.00 57 1015.0
20260507113355 68 160 1.7 0.0 0.00 0.00 0.00 60 1015.0
20260507111836 68 160 1.7 0.0 0.00 0.00 0.00 60 1015.0
20260507110335 68 160 1.7 0.0 0.00 0.00 0.00 60 1015.0
20260507104835 68 120 2.6 0.0 0.00 0.00 0.00 60 1014.0
20260507103335 68 120 2.6 0.0 0.00 0.00 0.00 60 1014.0
20260507101835 66 120 2.6 0.0 0.00 0.00 0.00 64 1015.0
20260507100336 66 120 2.6 0.0 0.00 0.00 0.00 64 1015.0
20260507094835 66 70 5.2 0.0 0.00 0.00 0.00 73 1015.0
20260507093336 66 70 5.2 0.0 0.00 0.00 0.00 73 1015.0
20260507091837 66 0.9 0.0 0.00 0.00 0.00 68 1015.0
20260507090335 66 0.9 0.0 0.00 0.00 0.00 68 1015.0
20260507084835 68 1.7 0.0 0.00 0.00 0.00 56 1014.0
20260507083336 68 1.7 0.0 0.00 0.00 0.00 56 1014.0
20260507081835 68 1.7 0.0 0.00 0.00 0.00 53 1014.0
20260507080336 68 1.7 0.0 0.00 0.00 0.00 53 1014.0
20260507074836 68 1.7 0.0 0.00 0.00 0.00 53 1014.0
20260507073335 68 1.7 0.0 0.00 0.00 0.00 53 1014.0
20260507071836 68 150 2.6 0.0 0.00 0.00 0.00 53 1014.0
20260507070335 68 150 2.6 0.0 0.00 0.00 0.00 53 1014.0
20260507064835 66 1.7 0.0 0.00 0.00 0.00 56 1014.0
20260507063335 66 1.7 0.0 0.00 0.00 0.00 56 1014.0
20260507061845 64 1.7 0.0 0.00 0.00 0.00 60 1013.0
20260507060335 64 1.7 0.0 0.00 0.00 0.00 60 1013.0
20260507054835 64 70 2.6 0.0 0.00 0.00 0.00 60 1013.0
20260507053343 64 70 2.6 0.0 0.00 0.00 0.00 60 1013.0
20260507051836 59 290 2.6 0.0 0.00 0.00 0.00 72 1013.0
20260507050335 59 290 2.6 0.0 0.00 0.00 0.00 72 1013.0
20260507044832 59 2.6 0.0 0.00 0.00 0.00 72 1013.0
20260507043335 59 2.6 0.0 0.00 0.00 0.00 72 1013.0
20260507041835 57 90 4.3 0.0 0.00 0.00 0.00 72 1013.0
20260507040335 57 90 4.3 0.0 0.00 0.00 0.00 72 1013.0
20260507034832 54 90 5.2 0.0 0.00 0.00 0.00 82 1013.0
20260507033335 54 90 5.2 0.0 0.00 0.00 0.00 82 1013.0
20260507031835 54 80 2.6 0.0 0.00 0.00 0.00 82 1013.0
20260507030335 54 80 2.6 0.0 0.00 0.00 0.00 82 1013.0
20260507024832 54 90 4.3 0.0 0.00 0.00 0.00 82 1013.0
20260507023335 54 90 4.3 0.0 0.00 0.00 0.00 82 1013.0
20260507021835 54 90 4.3 0.0 0.00 0.00 0.00 77 1013.0
20260507020335 54 90 4.3 0.0 0.00 0.00 0.00 77 1013.0
20260507014835 54 80 6.1 0.0 0.00 0.00 0.00 82 1012.0
20260507013335 54 80 6.1 0.0 0.00 0.00 0.00 82 1012.0
20260507011835 55 90 6.1 0.0 0.00 0.00 0.00 72 1012.0
20260507010335 55 90 6.1 0.0 0.00 0.00 0.00 72 1012.0
20260507004835 52 100 5.2 0.0 0.00 0.00 0.00 82 1012.0
20260507003336 52 100 5.2 0.0 0.00 0.00 0.00 82 1012.0
20260507001835 57 80 4.3 0.0 0.00 0.00 0.00 72 1012.0
20260507000336 57 80 4.3 0.0 0.00 0.00 0.00 72 1012.0
20260506234835 57 1.7 0.0 0.00 0.00 0.00 67 1012.0
20260506233335 57 1.7 0.0 0.00 0.00 0.00 67 1012.0
20260506231836 55 80 1.7 0.0 0.00 0.00 0.00 72 1012.0
20260506230335 55 80 1.7 0.0 0.00 0.00 0.00 72 1012.0
20260506224831 57 70 2.6 0.0 0.00 0.00 0.00 67 1012.0
20260506223335 57 70 2.6 0.0 0.00 0.00 0.00 67 1012.0
20260506221835 57 70 4.3 0.0 0.00 0.00 0.00 72 1012.0
20260506220334 57 70 4.3 0.0 0.00 0.00 0.00 72 1012.0
20260506214851 61 50 2.6 0.0 0.00 0.00 0.00 59 1012.0
20260506213335 61 50 2.6 0.0 0.00 0.00 0.00 59 1012.0
20260506211832 61 50 4.3 0.0 0.00 0.00 0.00 63 1012.0
20260506210335 61 50 4.3 0.0 0.00 0.00 0.00 63 1012.0
20260506204836 59 90 1.7 0.0 0.00 0.00 0.00 63 1012.0
20260506203335 59 90 1.7 0.0 0.00 0.00 0.00 63 1012.0
20260506201832 63 20 2.6 0.0 0.00 0.00 0.00 59 1012.0
20260506200335 63 20 2.6 0.0 0.00 0.00 0.00 59 1012.0
20260506194854 64 30 4.3 0.0 0.00 0.00 0.00 56 1012.0
20260506193359 64 30 4.3 0.0 0.00 0.00 0.00 56 1012.0
20260506191836 64 20 2.6 0.0 0.00 0.00 0.00 56 1011.0
20260506190335 64 20 2.6 0.0 0.00 0.00 0.00 56 1011.0
20260506184840 66 360 4.3 0.0 0.00 0.00 0.00 52 1011.0
20260506183335 66 360 4.3 0.0 0.00 0.00 0.00 52 1011.0
20260506181835 68 350 2.6 0.0 0.00 0.00 0.00 49 1011.0
20260506180336 68 350 2.6 0.0 0.00 0.00 0.00 49 1011.0
20260506174836 72 300 2.6 0.0 0.00 0.00 0.00 41 1011.0
20260506173335 72 300 2.6 0.0 0.00 0.00 0.00 41 1011.0
20260506171835 75 280 6.1 0.0 0.00 0.00 0.00 36 1011.0
20260506170335 75 280 6.1 0.0 0.00 0.00 0.00 36 1011.0
20260506164835 75 270 7.0 0.0 0.00 0.00 0.00 36 1011.0
20260506163335 75 270 7.0 0.0 0.00 0.00 0.00 36 1011.0
20260506161835 79 260 9.6 0.0 0.00 0.00 0.00 32 1010.0
20260506160335 79 260 9.6 0.0 0.00 0.00 0.00 32 1010.0
20260506154836 79 250 7.8 0.0 0.00 0.00 0.00 30 1011.0
20260506153335 79 250 7.8 0.0 0.00 0.00 0.00 30 1011.0
20260506151835 79 270 5.2 0.0 0.00 0.00 0.00 30 1011.0
20260506150341 79 270 5.2 0.0 0.00 0.00 0.00 30 1011.0
20260506144835 81 220 7.0 0.0 0.00 0.00 0.00 28 1011.0
20260506143347 81 220 7.0 0.0 0.00 0.00 0.00 28 1011.0
20260506141835 81 270 6.1 0.0 0.00 0.00 0.00 28 1011.0
20260506140454 81 270 6.1 0.0 0.00 0.00 0.00 28 1011.0